This is the latest recevied weather packets stored in our database for station/object VE3MJM-WX. If no packets are shown the sender has not sent any weather packets the latest 10 day(s).
| Time | Temp. | Humidity | Pressure | Rain* | Wind** | Luminosity | Snow |
|---|---|---|---|---|---|---|---|
| 1777763548 | 5.56° C | 38% | 1009.9 hPa | 0 mm | - | - | - |
| 1777762645 | 5.56° C | 38% | 1010 hPa | 0 mm | - | - | - |
| 1777761743 | 6.11° C | 41% | 1009.9 hPa | 0 mm | - | - | - |
| 1777760840 | 6.11° C | 39% | 1009.9 hPa | 0 mm | - | - | - |
| 1777759938 | 6.11° C | 43% | 1009.8 hPa | 0 mm | - | - | - |
| 1777759035 | 6.11° C | 44% | 1009.9 hPa | 0 mm | - | - | - |
| 1777758133 | 5.56° C | 47% | 1009.8 hPa | 0 mm | - | - | - |
| 1777757230 | 5.56° C | 49% | 1009.8 hPa | 0 mm | - | - | - |
| 1777756327 | 5.56° C | 47% | 1009.8 hPa | 0 mm | - | - | - |
| 1777755425 | 5° C | 49% | 1010.1 hPa | 0 mm | - | - | - |
| 1777754522 | 5° C | 50% | 1010.1 hPa | 0 mm | - | - | - |
| 1777753620 | 5° C | 54% | 1010.3 hPa | 0 mm | - | - | - |
| 1777752717 | 4.44° C | 67% | 1010.4 hPa | 0 mm | - | - | - |
| 1777751815 | 4.44° C | 57% | 1010.7 hPa | 0 mm | - | - | - |
| 1777750912 | 4.44° C | 64% | 1010.6 hPa | 0 mm | - | - | - |
| 1777750010 | 3.89° C | 66% | 1010.8 hPa | 0 mm | - | - | - |
| 1777749107 | 4.44° C | 64% | 1010.8 hPa | 0 mm | - | - | - |
| 1777748205 | 4.44° C | 62% | 1010.9 hPa | 0 mm | - | - | - |
| 1777747302 | 4.44° C | 63% | 1010.7 hPa | 0 mm | - | - | - |
| 1777746399 | 4.44° C | 62% | 1010.9 hPa | 0 mm | - | - | - |
| 1777745497 | 4.44° C | 62% | 1010.8 hPa | 0 mm | - | - | - |
| 1777744594 | 4.44° C | 65% | 1010.7 hPa | 0 mm | - | - | - |
| 1777743692 | 4.44° C | 65% | 1010.7 hPa | 0 mm | - | - | - |
| 1777742789 | 4.44° C | 64% | 1010.6 hPa | 0 mm | - | - | - |
| 1777741887 | 4.44° C | 62% | 1010.6 hPa | 0 mm | - | - | - |
* Rain latest hour (hover to see other rain measurements)
** Current wind speed in m/s (hover to see current wind gust speed)